Simultaneous Nadir Overpasses (SNOs) Predictions

Prediction of SNOs between METOP-B and NOAA-19 Satellite Orbit:

Table of predicted SNOs for the next 14.0 days since TLE Epoch: 5/12/2017
Index Date (METOP-B) Time (METOP-B) Lat,Lon (METOP-B) SZA (METOP-B ) Date (NOAA-19) Time (NOAA-19) Lat,Lon (NOAA-19) SZA (NOAA-19 ) Distance(km) Time Diff (sec)
1 05/13/2017 07:41:31 -77.50,-109.33 120.93 05/13/2017 07:40:24 -77.47,-112.46 121.03 75.49 67
2 05/13/2017 08:32:19 77.15, 56.46 58.68 05/13/2017 08:31:12 77.14, 56.42 58.66 1.63 67
3 05/13/2017 09:23:01 -77.14,-136.25 121.35 05/13/2017 09:22:17 -77.12,-136.30 121.37 1.93 44
4 05/13/2017 10:13:41 77.13, 31.04 58.64 05/13/2017 10:13:13 77.11, 31.03 58.62 2.02 28
5 05/13/2017 11:04:23 -77.12,-161.67 121.39 05/13/2017 11:04:18 -77.10,-161.68 121.41 2.37 5
6 05/13/2017 11:55:03 77.11, 5.62 58.60 05/13/2017 11:55:14 77.08, 5.65 58.58 2.83 11
7 05/13/2017 12:45:45 -77.10, 172.91 121.42 05/13/2017 12:46:19 -77.07, 172.93 121.45 3.18 34
8 05/13/2017 13:36:25 77.09, -19.80 58.56 05/13/2017 13:37:16 77.10, -19.93 58.57 3.46 51
9 05/13/2017 14:27:07 -77.08, 147.49 121.46 05/13/2017 14:28:21 -77.09, 147.36 121.45 3.39 74
10 05/24/2017 02:09:32 -77.18, -27.74 123.61 05/24/2017 02:08:18 -77.18, -27.77 123.61 1.13 74
11 05/24/2017 03:00:12 77.17, 139.54 56.37 05/24/2017 02:59:14 77.19, 139.47 56.39 3.16 58
12 05/24/2017 03:50:54 -77.16, -53.16 123.64 05/24/2017 03:50:19 -77.16, -53.16 123.65 0.15 35
13 05/24/2017 04:41:34 77.15, 114.12 56.34 05/24/2017 04:41:15 77.16, 114.08 56.35 2.17 19
14 05/24/2017 05:32:16 -77.14, -78.58 123.68 05/24/2017 05:32:20 -77.13, -78.55 123.68 0.96 4
15 05/24/2017 06:22:56 77.13, 88.70 56.30 05/24/2017 06:23:16 77.14, 88.70 56.32 1.30 20
16 05/24/2017 07:13:38 -77.12,-104.00 123.71 05/24/2017 07:14:21 -77.11,-103.94 123.72 1.99 43
17 05/24/2017 08:04:18 77.11, 63.28 56.27 05/24/2017 08:05:17 77.11, 63.31 56.28 0.95 59
18 05/24/2017 08:55:08 -76.75,-130.83 124.13 05/24/2017 08:56:15 -76.79,-128.04 124.01 71.08 67




NCC Satellite Simultaneous Nadir Overpasses (SNOs) Prediction Service
